User: anonymous   Login
Location: Unspecified
(0.0000°N, 0.0000°E)
Time: 17:51:05
(UTC+00:00)
Language:

GALILEO 12 (269) - Orbit

View from above orbital plane
View from above orbital plane
View from above satellite
View from above satellite

Ground track
Ground track

The orbit data is extracted from the following two-line orbital elements,

1 41174U 15079A   25161.14439132  .00000012  00000-0  00000-0 0  9994
2 41174  55.6062 111.4781 0005278 327.8190  32.0945  1.70473962 58430
Epoch (UTC): 10 June 2025 03:27:55
Eccentricity: 0.0005278
inclination: 55.6062°
perigee height: 23206 km
apogee height: 23237 km
right ascension of ascending node: 111.4781°
argument of perigee: 327.8190°
revolutions per day: 1.70473962
mean anomaly at epoch: 32.0945°
orbit number at epoch: 5843

The dashed part of the orbit path shows where the satellite is in the earth's shadow,  

DLR